Geneva, Switzerland

11:38 AM CET on January 16, 2018 (GMT +0100)
Cointrin

Weather History for LSGG - September, 2013

Change the Weather History Date:

Sunday, September 1, 2013

  Actual Average Record
Temperature  
Mean Temperature 64 °F -  
Max Temperature 75 °F 69 °F 87 °F (2005)
Min Temperature 53 °F 48 °F 46 °F (2006)
Degree Days  
Heating Degree Days 1    
Growing Degree Days 14 (Base 50)    
Moisture  
Dew Point 53 °F    
Average Humidity 65    
Maximum Humidity 100    
Minimum Humidity 32    
Precipitation  
Precipitation 0.00 in 0.10 in - ()
Sea Level Pressure  
Sea Level Pressure 30.24 in    
Wind  
Wind Speed 4 mph ()    
Max Wind Speed 12 mph    
Max Gust Speed -    
Visibility 6.8 miles    
Events      
Averages and records for this station are not official NWS values.
T = Trace of Precipitation, MM = Missing Value Source: Averaged Metar Reports

Daily Weather History Graph

Daily Weather History Graph

Search for Another Location

Airport or City:

Trip Planner

Search our weather history database for the weather conditions in past years. The results will help you decide how hot, cold, wet, or windy it might be!

Date:

Astronomy

Sep. 01, 2013 Rise Set
Actual Time 6:55 AM CEST 8:14 PM CEST
Civil Twilight 6:24 AM CEST 8:45 PM CEST
Nautical Twilight 5:47 AM CEST 9:22 PM CEST
Astronomical Twilight 5:07 AM CEST 10:02 PM CEST
Moon 2:54 AM CEST (9/1) 5:48 PM CEST (9/1)
Length of Visible Light 14h 20m
Length of Day
13h 18m
Waning Crescent, 15% of the Moon is Illuminated
Sep 1
Waning Crescent
Sep 5
New
Sep 12
First Quarter
Sep 19
Full
Sep 27
Last Quarter

Hourly Weather History & Observations

Time (CEST) Temp. Dew Point Humidity Pressure Visibility Wind Dir Wind Speed Gust Speed Precip Events Conditions
12:00 AM 63 °F 54 °F 64% 30.21 in - NNW 2.3 mph - -  
12:20 AM 62.6 °F 55.4 °F 77% 30.21 in 6.2 mi Calm Calm - N/A   Partly Cloudy
12:50 AM 60.8 °F 55.4 °F 82% 30.21 in - Variable 2.3 mph - N/A   Clear
1:00 AM 60 °F 54 °F 75% 30.22 in - North 3.5 mph - -  
1:20 AM 60.8 °F 55.4 °F 82% 30.24 in - Variable 3.5 mph - N/A   Clear
1:50 AM 59.0 °F 55.4 °F 88% 30.24 in - Calm Calm - N/A   Clear
2:00 AM 59 °F 54 °F 78% 30.23 in 19 mi SW 2.3 mph - -  
2:20 AM 59.0 °F 55.4 °F 88% 30.24 in - Variable 1.2 mph - N/A   Clear
2:50 AM 59.0 °F 55.4 °F 88% 30.24 in - WSW 2.3 mph - N/A   Clear
3:50 AM 57.2 °F 53.6 °F 88% 30.24 in - WNW 2.3 mph - N/A   Clear
4:00 AM 56 °F 53 °F 86% 30.23 in - SW 2.3 mph - -  
4:20 AM 55.4 °F 53.6 °F 94% 30.21 in - Variable 2.3 mph - N/A   Clear
4:50 AM 55.4 °F 53.6 °F 94% 30.21 in - Calm Calm - N/A   Clear
5:20 AM 53.6 °F 51.8 °F 94% 30.21 in - Calm Calm - N/A   Clear
5:50 AM 53.6 °F 53.6 °F 100% 30.21 in - Calm Calm - N/A   Clear
6:20 AM 53.6 °F 53.6 °F 100% 30.24 in - Variable 2.3 mph - N/A   Clear
6:50 AM 53.6 °F 53.6 °F 100% 30.24 in 6.2 mi Calm Calm - N/A   Partly Cloudy
7:20 AM 53.6 °F 51.8 °F 94% 30.24 in 6.2 mi Calm Calm - N/A   Partly Cloudy
7:50 AM 55.4 °F 53.6 °F 94% 30.24 in 6.2 mi Calm Calm - N/A   Partly Cloudy
8:00 AM 56 °F 53 °F 84% 30.26 in 12 mi SW 2.3 mph - -   Scattered Clouds
8:20 AM 59.0 °F 55.4 °F 88% 30.27 in 6.2 mi Calm Calm - N/A   Partly Cloudy
8:50 AM 62.6 °F 55.4 °F 77% 30.27 in 6.2 mi Variable 1.2 mph - N/A   Partly Cloudy
9:00 AM 62 °F 54 °F 69% 30.25 in - ESE 1.2 mph - -  
9:20 AM 66.2 °F 57.2 °F 73% 30.27 in 6.2 mi Calm Calm - N/A   Partly Cloudy
9:50 AM 68.0 °F 57.2 °F 68% 30.27 in 6.2 mi Variable 1.2 mph - N/A   Partly Cloudy
10:00 AM 65 °F 55 °F 62% 30.24 in - ENE 3.5 mph - -  
10:20 AM 66.2 °F 55.4 °F 68% 30.27 in 6.2 mi ENE 4.6 mph - N/A   Partly Cloudy
10:50 AM 69.8 °F 57.2 °F 64% 30.27 in 6.2 mi NNE 8.1 mph - N/A   Partly Cloudy
11:20 AM 69.8 °F 55.4 °F 60% 30.27 in 6.2 mi NE 8.1 mph - N/A   Partly Cloudy
11:50 AM 69.8 °F 55.4 °F 60% 30.27 in 6.2 mi NNE 8.1 mph - N/A   Partly Cloudy
12:00 PM 69 °F 53 °F 47% 30.23 in - ENE 10.4 mph - -  
12:20 PM 71.6 °F 55.4 °F 57% 30.27 in 6.2 mi NE 8.1 mph - N/A   Partly Cloudy
12:50 PM 73.4 °F 53.6 °F 50% 30.24 in 6.2 mi NE 9.2 mph - N/A   Scattered Clouds
1:00 PM 72 °F 54 °F 42% 30.20 in - NE 11.5 mph - -  
1:20 PM 73.4 °F 55.4 °F 53% 30.24 in 6.2 mi NNE 8.1 mph - N/A   Partly Cloudy
1:50 PM 73.4 °F 53.6 °F 50% 30.24 in 6.2 mi NE 9.2 mph - N/A   Partly Cloudy
2:00 PM 73 °F 53 °F 38% 30.19 in 22 mi NE 11.5 mph - -   Scattered Clouds
2:20 PM 75.2 °F 53.6 °F 47% 30.24 in 6.2 mi NE 10.4 mph - N/A   Scattered Clouds
2:50 PM 73.4 °F 53.6 °F 50% 30.24 in 6.2 mi NE 10.4 mph - N/A   Partly Cloudy
3:00 PM 74 °F 52 °F 35% 30.19 in - NE 10.4 mph - -  
3:20 PM 75.2 °F 50.0 °F 41% 30.24 in 6.2 mi NE 10.4 mph - N/A   Partly Cloudy
3:50 PM 75.2 °F 50.0 °F 41% 30.24 in 6.2 mi NE 11.5 mph - N/A   Partly Cloudy
4:00 PM 74 °F 50 °F 32% 30.18 in - NNE 10.4 mph - -  
4:20 PM 75.2 °F 50.0 °F 41% 30.24 in 6.2 mi NNE 9.2 mph - N/A   Partly Cloudy
4:50 PM 75.2 °F 50.0 °F 41% 30.24 in 6.2 mi NE 11.5 mph - N/A   Partly Cloudy
5:20 PM 73.4 °F 50.0 °F 44% 30.24 in 6.2 mi NNE 5.8 mph - N/A   Scattered Clouds
5:50 PM 73.4 °F 50.0 °F 44% 30.24 in 6.2 mi North 4.6 mph - N/A   Scattered Clouds
6:00 PM 73 °F 50 °F 34% 30.19 in - NW 6.9 mph - -  
6:20 PM 71.6 °F 50.0 °F 46% 30.24 in 6.2 mi NNW 6.9 mph - N/A   Scattered Clouds
6:50 PM 69.8 °F 50.0 °F 49% 30.24 in 6.2 mi NNW 8.1 mph - N/A   Scattered Clouds
7:00 PM 69 °F 50 °F 40% 30.21 in - North 8.1 mph - -  
7:20 PM 68.0 °F 51.8 °F 56% 30.24 in 6.2 mi North 6.9 mph - N/A   Scattered Clouds
7:50 PM 66.2 °F 51.8 °F 60% 30.24 in 6.2 mi North 5.8 mph - N/A   Scattered Clouds
8:00 PM 66 °F 50 °F 46% 30.22 in 25 mi North 4.6 mph - -   Scattered Clouds
8:20 PM 66.2 °F 51.8 °F 60% 30.24 in 6.2 mi Variable 4.6 mph - N/A   Partly Cloudy
8:50 PM 62.6 °F 50.0 °F 63% 30.27 in 6.2 mi North 4.6 mph - N/A   Mostly Cloudy
9:00 PM 62 °F 50 °F 56% 30.26 in - North 3.5 mph - -  
9:20 PM 62.6 °F 50.0 °F 63% 30.27 in - NNE 4.6 mph - N/A   Clear
9:50 PM 64.4 °F 51.8 °F 64% 30.27 in - ENE 10.4 mph - N/A   Clear
10:00 PM 64 °F 51 °F 53% 30.27 in - NE 9.2 mph - -  
10:20 PM 64.4 °F 51.8 °F 64% 30.30 in - NE 10.4 mph - N/A   Clear
10:50 PM 62.6 °F 51.8 °F 68% 30.30 in - NE 6.9 mph - N/A   Clear
11:20 PM 60.8 °F 51.8 °F 72% 30.30 in - North 3.5 mph - N/A   Clear
11:50 PM 57.2 °F 50.0 °F 77% 30.30 in - Variable 2.3 mph - N/A   Clear